EW1991 Weather Reports


time (UTC)temp
F
wind
direction
speed
knots
gust
knots
rain 1hr
in
rain 24hr
in
rain mn
in
humidity
%
barometer
mb
20260504081534 46 340 1.7 7.0 0.00 0.00 0.00 73 1008.7
20260504050016 46 334 0.9 3.5 0.00 0.00 0.00 71 1009.3
20260504044513 46 349 0.9 2.6 0.00 0.00 0.00 69 1009.4
20260504043011 46 67 0.0 0.9 0.00 0.00 0.00 69 1009.6
20260504041509 47 129 0.0 0.9 0.00 0.00 0.00 65 1009.7
20260504040015 47 130 0.0 5.2 0.00 0.00 0.00 65 1009.7
20260504034505 46 330 0.0 1.7 0.00 0.00 0.00 59 1009.8
20260504033005 45 345 1.7 2.6 0.00 0.00 0.00 57 1009.6
20260504031504 45 51 0.9 1.7 0.00 0.00 0.00 58 1009.5
20260504030008 44 319 0.0 0.9 0.00 0.00 0.00 62 1009.5
20260504024504 44 319 0.0 1.7 0.00 0.00 0.00 57 1009.6
20260504023003 44 330 0.0 0.0 0.00 0.00 0.00 56 1009.5
20260504021502 44 330 0.0 1.7 0.00 0.00 0.00 56 1009.4
20260504020003 44 330 0.0 1.7 0.00 0.00 0.00 58 1009.4
20260504014502 44 331 0.0 2.6 0.00 0.00 0.00 55 1009.5
20260504013002 45 107 0.0 0.0 0.00 0.00 0.00 52 1009.5
20260504011600 47 107 0.0 0.0 0.00 0.00 0.00 52 1009.3
20260504010059 48 109 0.0 2.6 0.00 0.00 0.00 48 1009.2
20260504004559 49 158 0.9 2.6 0.00 0.00 0.00 43 1009.0
20260504003107 50 137 0.0 2.6 0.00 0.00 0.00 41 1008.9
20260504001607 51 48 2.6 7.0 0.00 0.00 0.00 37 1008.6
20260504000127 51 104 1.7 8.7 0.00 0.00 0.00 37 1008.5
20260503234557 52 118 2.6 10.4 0.00 0.00 0.00 35 1008.4
20260503233056 53 137 3.5 7.0 0.00 0.00 0.00 30 1008.0
20260503231556 54 100 1.7 9.6 0.00 0.00 0.00 30 1007.9
20260503224554 55 169 2.6 5.2 0.00 0.00 0.00 30 1007.4
20260503223052 55 170 3.5 8.7 0.00 0.00 0.00 32 1007.3
20260503221553 54 156 1.7 6.1 0.00 0.00 0.00 35 1007.3
20260503220048 54 192 2.6 6.1 0.00 0.00 0.00 37 1007.3
20260503214546 53 132 3.5 6.1 0.00 0.00 0.00 40 1007.3
20260503213046 53 146 2.6 5.2 0.00 0.00 0.00 38 1007.4
20260503211541 52 175 1.7 4.3 0.00 0.00 0.00 42 1007.5
20260503210040 52 162 5.2 8.7 0.00 0.00 0.00 41 1007.6
20260503204542 51 170 3.5 7.8 0.00 0.00 0.00 49 1007.8
20260503203037 52 109 3.5 7.8 0.00 0.00 0.00 38 1007.9
20260503201535 52 154 3.5 8.7 0.00 0.00 0.00 39 1008.0
20260503200032 52 133 1.7 7.8 0.00 0.00 0.00 40 1008.1
20260503194533 51 120 1.7 9.6 0.00 0.00 0.00 41 1008.3
20260503193039 51 129 4.3 10.4 0.00 0.00 0.00 39 1008.5
20260503191528 51 110 3.5 13.9 0.00 0.00 0.00 41 1008.6
20260503190025 50 139 4.3 7.8 0.00 0.00 0.00 40 1008.7
20260503184526 51 165 2.6 10.4 0.00 0.00 0.00 43 1008.9
20260503183019 50 123 2.6 7.8 0.00 0.00 0.00 42 1009.0
20260503181518 49 155 1.7 9.6 0.00 0.00 0.00 47 1009.2
20260503180019 49 158 2.6 8.7 0.00 0.00 0.00 44 1009.2
20260503174513 48 70 5.2 9.6 0.00 0.00 0.00 43 1009.2
20260503173020 48 138 0.9 9.6 0.00 0.00 0.00 45 1009.3
20260503171517 48 136 2.6 7.8 0.00 0.00 0.00 47 1009.5